Dauntless Aviation
Greetings, Guest! To participate, [sign up for a free account] or [log in]
Airports South America Brazil
SBGO
GYN

Santa Genoveva

Goiania, BRAZIL

Airport Info
Edit

Location

Latitude / Longitude: 16°37'55"S / 49°13'14"W
  16°37.92'S / 49°13.242'W
  -16.6320 / -49.2207

Nearby radio navigation aids

GOI GOIANIA VOR/DME on field.
GOI GOIANIA NDB on field.

Runway Information

Runway 14 /32

Dimensions: 7300 x 148 ft.
Surface: ASP
 
Runway 14
Runway 32
Latitude: -16.626111 -16.636111
Longitude: -49.231389 -49.213333
Elevation: 2440 ft. 2440 ft.
Runway true heading: 121.4 301.4
 

Instrument Procedures

  Aerodrome Chart

IAPs (Instrument Approach Procedures)

  RNAV (GNSS) Rwy 32
  Visual Approach Chart
  VOR ou VOR/DME Rwy 32
  RNAV (GNSS) Rwy 14
  NDB Rwy 14
  VOR ou VOR/DME Rwy 14

Departure Procedures

  SID AMANT-EPKON-ETOB
  SID AMANT 1B-PADIK 1B-PAJEM 1B-PAPES 1B
  SID RNAV KETUL 1A-MUDOP 1A-PADIK 1A-PAJEM 1AUBMU 1A-ROMIK 1A Rwy 14
  SID ARIH-LIZA
  SID RNAV KETUL 1A-MUDOP 1A-PADIK 1A-PAJEM 1AUBMU 1A-ROMIK 1A Rwy 32
Satellite photo at:
Airport distance calculator
From:
Weather Reports

METAR

SBGO

SBGO 302000Z 34006KT 9999 FEW030 29/12 Q1015
SBAN
28.9nm N
SBAN 302000Z 23003KT 9999 FEW030 26/13 Q1018

TAF

SBGO
TAF SBGO 301400Z 3018/3118 15005KT 7000 SCT015 TX28/3019Z TN17/3110Z BECMG 3100/3102 13005KT BECMG 3106/3108 12005KT BECMG 3112/3114 04005KT RM K PDE
Safelog

 

Dauntless Aviation

© 2007-2015 Dauntless Aviation, all rights reserved
Information provided via PilotNav comes from a variety of official and unofficial data sources. As errors are possible, do not use PilotNav for primary flight planning purposes. Verify any information that you receive via PilotNav with current and canonical charts and other official documents. The material in this database is subject to database copyrights held by Dauntless Aviation and may not be copied without the express permission of Dauntless Aviation - licenses for use of part of all of this data are available for purchase; enquire via the Dauntless Aviation helpdesk. A number of mechanisms and markers exist in the database to protect against and identify infringement / copyright. Automated queries against this website are stictly prohibited, and all activity is logged and analyzed.